Carnival Splendor — 3EUS — position and weather

sailwx.info

Track history (hours):
 
Tides and Currents Weather Stations Pressure Air Temp Water Temp Dewpoint Dewpoint Depression Visibility Wind Speed Wind Dir Waves Ship Positions

Carnival Splendor

Last reported at 2014-Oct-17 22:00 UTC. Time now 2014-Oct-20 22:47 UTC.
Position N 33°00' W 073°00'.

Length 289 m; draft 8.3 m.

Type: Ship. MMSI: 372808000.

Wind from 280 at 15 knots

Waves 2.0 meters (7 feet), 8 second period

Barometer 1010.0 mb
Air temperature 23.0 ° C
Visibility: greater than 5.4 NM
Dewpoint 15.0 ° C
Water temperature 27.0 ° C

Date/timePositionNaut miles runAvg speedWind from/ knotsBaromVisibWave heightAir tempDewpointWater temp
2014-Oct-17 22:00N 33°00' W 073°00'37820.3 280 / 151010.0 5.4 2.023.015.027.0
2014-Oct-17 03:25N 39°17' W 073°19'1820.7
2014-Oct-17 02:32N 39°36' W 073°19'2020.5
2014-Oct-17 01:34N 39°55' W 073°18'2020.2
2014-Oct-17 00:33N 40°12' W 073°33'1918.9
2014-Oct-16 23:33N 40°27' W 073°48'1313.5
2014-Oct-16 22:33N 40°35' W 074°02'1111.1
2014-Oct-16 21:33N 40°46' W 074°00'0 0.3
2014-Oct-16 20:32N 40°46' W 073°60'0 0.0
2014-Oct-16 19:31N 40°46' W 073°60'0 0.0
2014-Oct-16 18:19N 40°46' W 073°60'0 0.0
2014-Oct-16 17:34N 40°46' W 073°60'0 0.0
2014-Oct-16 16:33N 40°46' W 073°60'0 0.0
2014-Oct-16 15:33N 40°46' W 073°60'0 0.0
2014-Oct-16 14:32N 40°46' W 073°60'0 0.0
2014-Oct-16 13:32N 40°46' W 073°60'0 0.0
2014-Oct-16 12:31N 40°46' W 073°60'0 0.0
2014-Oct-16 11:29N 40°46' W 073°60'1 1.4
2014-Oct-16 10:34N 40°45' W 074°01'7 6.9
2014-Oct-16 09:33N 40°38' W 074°03'1313.2
2014-Oct-16 08:33N 40°28' W 073°52'4313.6
2014-Oct-16 05:22N 40°30' W 072°55'1417.2
2014-Oct-16 04:33N 40°30' W 072°37'1717.0
2014-Oct-16 03:33N 40°31' W 072°14'1717.2
2014-Oct-16 02:33N 40°31' W 071°52'1717.2
2014-Oct-16 01:33N 40°32' W 071°29'1717.3
2014-Oct-16 00:33N 40°32' W 071°06'1717.2
2014-Oct-15 23:33N 40°32' W 070°44'1817.5
2014-Oct-15 22:33N 40°33' W 070°21'1717.1
2014-Oct-15 21:33N 40°33' W 069°58'1716.9
2014-Oct-15 20:33N 40°34' W 069°36'1716.8
2014-Oct-15 19:33N 40°35' W 069°14'1716.9
2014-Oct-15 18:33N 40°37' W 068°52'1817.4
2014-Oct-15 17:33N 40°41' W 068°29'1717.2
2014-Oct-15 16:32N 40°50' W 068°10'1817.8
2014-Oct-15 15:33N 40°59' W 067°50'2017.7
2014-Oct-15 14:24N 41°10' W 067°27'1517.9
2014-Oct-15 13:33N 41°18' W 067°10'6418.1
2014-Oct-15 10:00N 41°48' W 065°54'18817.8 200 / 251023.0 5.4 1.019.012.021.0
2014-Oct-14 23:26N 44°22' W 063°27'1214.0
2014-Oct-14 22:33N 44°34' W 063°32'4 4.3
2014-Oct-14 21:33N 44°38' W 063°34'0 0.0
2014-Oct-14 20:33N 44°38' W 063°34'0 0.0
2014-Oct-14 19:26N 44°38' W 063°34'0 0.0
2014-Oct-14 18:32N 44°38' W 063°34'0 0.0
2014-Oct-14 17:28N 44°38' W 063°34'0 0.0
2014-Oct-14 16:31N 44°38' W 063°34'0 0.0
2014-Oct-14 15:30N 44°38' W 063°34'0 0.0
2014-Oct-14 14:33N 44°38' W 063°34'0 0.0
2014-Oct-14 13:33N 44°38' W 063°34'0 0.3
2014-Oct-14 12:33N 44°38' W 063°34'1111.0
2014-Oct-14 11:33N 44°28' W 063°28'1313.4
2014-Oct-14 10:33N 44°15' W 063°32'303 6.7
2014-Oct-12 13:28N 40°43' W 068°25'1515.4
2014-Oct-12 12:30N 40°36' W 068°43'1515.6
2014-Oct-12 11:30N 40°30' W 069°02'1516.0
2014-Oct-12 10:33N 40°26' W 069°21'1716.8
2014-Oct-12 09:33N 40°26' W 069°43'1717.0
2014-Oct-12 08:33N 40°25' W 070°05'1716.9
2014-Oct-12 07:33N 40°25' W 070°27'1717.2
2014-Oct-12 06:33N 40°24' W 070°50'1717.3
2014-Oct-12 05:33N 40°24' W 071°13'1717.2
2014-Oct-12 04:33N 40°23' W 071°35'1716.8
2014-Oct-12 03:33N 40°23' W 071°57'1716.6
2014-Oct-12 02:33N 40°23' W 072°19'1716.5
2014-Oct-12 01:33N 40°23' W 072°41'1616.2
2014-Oct-12 00:33N 40°22' W 073°02'1616.2
2014-Oct-11 23:33N 40°23' W 073°23'1616.2
2014-Oct-11 22:33N 40°25' W 073°44'1514.6
2014-Oct-11 21:33N 40°32' W 074°01'1413.9
2014-Oct-11 20:33N 40°46' W 074°00'1 0.5
2014-Oct-11 19:27N 40°46' W 073°60'0 0.0
2014-Oct-11 18:33N 40°46' W 073°60'0 0.0
2014-Oct-11 17:33N 40°46' W 073°60'0 0.0
2014-Oct-11 16:33N 40°46' W 073°60'0 0.0
2014-Oct-11 15:33N 40°46' W 073°60'0 0.0
2014-Oct-11 14:33N 40°46' W 073°60'0 0.0
2014-Oct-11 13:33N 40°46' W 073°60'0 0.0
2014-Oct-11 12:33N 40°46' W 073°60'0 0.0
2014-Oct-11 11:33N 40°46' W 073°60'2 1.5
2014-Oct-11 10:33N 40°45' W 074°01'9 8.7
2014-Oct-11 09:33N 40°36' W 074°03'1111.3
2014-Oct-11 08:33N 40°28' W 073°52'10 9.3
2014-Oct-11 07:29N 40°27' W 073°39'1716.7
2014-Oct-11 06:27N 40°29' W 073°16'1617.6
2014-Oct-11 05:33N 40°30' W 072°55'1818.0
2014-Oct-11 04:33N 40°30' W 072°32'1817.8
2014-Oct-11 03:34N 40°31' W 072°09'1817.7
2014-Oct-11 02:33N 40°31' W 071°45'1717.4
2014-Oct-11 01:33N 40°32' W 071°22'1717.5
2014-Oct-11 00:34N 40°32' W 070°59'1717.5
2014-Oct-10 23:33N 40°33' W 070°36'1817.7
2014-Oct-10 22:33N 40°34' W 070°13'1818.0
2014-Oct-10 21:33N 40°34' W 069°49'1817.8
2014-Oct-10 20:33N 40°34' W 069°26'1817.5
2014-Oct-10 19:33N 40°36' W 069°03'1717.1
2014-Oct-10 18:33N 40°41' W 068°41'2116.5
2014-Oct-10 17:18N 40°50' W 068°17'303 6.9
2014-Oct-08 21:34N 44°26' W 063°29'1212.1
2014-Oct-08 20:33N 44°38' W 063°33'0 0.3
2014-Oct-08 19:28N 44°38' W 063°34'0 0.0
2014-Oct-08 18:33N 44°38' W 063°34'0 0.0
2014-Oct-08 17:33N 44°38' W 063°34'0 0.0
2014-Oct-08 16:33N 44°38' W 063°34'0 0.0
2014-Oct-08 15:33N 44°38' W 063°34'0 0.0
2014-Oct-08 14:33N 44°38' W 063°34'0 0.0
2014-Oct-08 13:33N 44°38' W 063°34'0 0.0
2014-Oct-08 12:33N 44°38' W 063°34'0 0.3
2014-Oct-08 11:33N 44°38' W 063°33'10 9.5
2014-Oct-08 10:33N 44°29' W 063°29'9 8.7
2014-Oct-08 09:33N 44°21' W 063°23'10 9.3
2014-Oct-08 08:27N 44°14' W 063°33'28 9.0
2014-Oct-08 05:19N 43°56' W 064°04'17 9.3
2014-Oct-08 03:32N 43°46' W 064°22'  
Track history (hours):
 
Tides and Currents Weather Stations Pressure Air Temp Water Temp Dewpoint Dewpoint Depression Visibility Wind Speed Wind Dir Waves Ship Positions

Carnival Splendor

Last reported at 2014-Oct-17 22:00 UTC. Time now 2014-Oct-20 22:47 UTC.
Position N 33°00' W 073°00'.

Length 289 m; draft 8.3 m.

Type: Ship. MMSI: 372808000.

Wind from 280 at 15 knots

Waves 2.0 meters (7 feet), 8 second period

Barometer 1010.0 mb
Air temperature 23.0 ° C
Visibility: greater than 5.4 NM
Dewpoint 15.0 ° C
Water temperature 27.0 ° C

Date/timePositionNaut miles runAvg speedWind from/ knotsBaromVisibWave heightAir tempDewpointWater temp
2014-Oct-17 22:00N 33°00' W 073°00'37820.3 280 / 151010.0 5.4 2.023.015.027.0
2014-Oct-17 03:25N 39°17' W 073°19'1820.7
2014-Oct-17 02:32N 39°36' W 073°19'2020.5
2014-Oct-17 01:34N 39°55' W 073°18'2020.2
2014-Oct-17 00:33N 40°12' W 073°33'1918.9
2014-Oct-16 23:33N 40°27' W 073°48'1313.5
2014-Oct-16 22:33N 40°35' W 074°02'1111.1
2014-Oct-16 21:33N 40°46' W 074°00'0 0.3
2014-Oct-16 20:32N 40°46' W 073°60'0 0.0
2014-Oct-16 19:31N 40°46' W 073°60'0 0.0
2014-Oct-16 18:19N 40°46' W 073°60'0 0.0
2014-Oct-16 17:34N 40°46' W 073°60'0 0.0
2014-Oct-16 16:33N 40°46' W 073°60'0 0.0
2014-Oct-16 15:33N 40°46' W 073°60'0 0.0
2014-Oct-16 14:32N 40°46' W 073°60'0 0.0
2014-Oct-16 13:32N 40°46' W 073°60'0 0.0
2014-Oct-16 12:31N 40°46' W 073°60'0 0.0
2014-Oct-16 11:29N 40°46' W 073°60'1 1.4
2014-Oct-16 10:34N 40°45' W 074°01'7 6.9
2014-Oct-16 09:33N 40°38' W 074°03'1313.2
2014-Oct-16 08:33N 40°28' W 073°52'4313.6
2014-Oct-16 05:22N 40°30' W 072°55'1417.2
2014-Oct-16 04:33N 40°30' W 072°37'1717.0
2014-Oct-16 03:33N 40°31' W 072°14'1717.2
2014-Oct-16 02:33N 40°31' W 071°52'1717.2
2014-Oct-16 01:33N 40°32' W 071°29'1717.3
2014-Oct-16 00:33N 40°32' W 071°06'1717.2
2014-Oct-15 23:33N 40°32' W 070°44'1817.5
2014-Oct-15 22:33N 40°33' W 070°21'1717.1
2014-Oct-15 21:33N 40°33' W 069°58'1716.9
2014-Oct-15 20:33N 40°34' W 069°36'1716.8
2014-Oct-15 19:33N 40°35' W 069°14'1716.9
2014-Oct-15 18:33N 40°37' W 068°52'1817.4
2014-Oct-15 17:33N 40°41' W 068°29'1717.2
2014-Oct-15 16:32N 40°50' W 068°10'1817.8
2014-Oct-15 15:33N 40°59' W 067°50'2017.7
2014-Oct-15 14:24N 41°10' W 067°27'1517.9
2014-Oct-15 13:33N 41°18' W 067°10'6418.1
2014-Oct-15 10:00N 41°48' W 065°54'18817.8 200 / 251023.0 5.4 1.019.012.021.0
2014-Oct-14 23:26N 44°22' W 063°27'1214.0
2014-Oct-14 22:33N 44°34' W 063°32'4 4.3
2014-Oct-14 21:33N 44°38' W 063°34'0 0.0
2014-Oct-14 20:33N 44°38' W 063°34'0 0.0
2014-Oct-14 19:26N 44°38' W 063°34'0 0.0
2014-Oct-14 18:32N 44°38' W 063°34'0 0.0
2014-Oct-14 17:28N 44°38' W 063°34'0 0.0
2014-Oct-14 16:31N 44°38' W 063°34'0 0.0
2014-Oct-14 15:30N 44°38' W 063°34'0 0.0
2014-Oct-14 14:33N 44°38' W 063°34'0 0.0
2014-Oct-14 13:33N 44°38' W 063°34'0 0.3
2014-Oct-14 12:33N 44°38' W 063°34'1111.0
2014-Oct-14 11:33N 44°28' W 063°28'1313.4
2014-Oct-14 10:33N 44°15' W 063°32'303 6.7
2014-Oct-12 13:28N 40°43' W 068°25'1515.4
2014-Oct-12 12:30N 40°36' W 068°43'1515.6
2014-Oct-12 11:30N 40°30' W 069°02'1516.0
2014-Oct-12 10:33N 40°26' W 069°21'1716.8
2014-Oct-12 09:33N 40°26' W 069°43'1717.0
2014-Oct-12 08:33N 40°25' W 070°05'1716.9
2014-Oct-12 07:33N 40°25' W 070°27'1717.2
2014-Oct-12 06:33N 40°24' W 070°50'1717.3
2014-Oct-12 05:33N 40°24' W 071°13'1717.2
2014-Oct-12 04:33N 40°23' W 071°35'1716.8
2014-Oct-12 03:33N 40°23' W 071°57'1716.6
2014-Oct-12 02:33N 40°23' W 072°19'1716.5
2014-Oct-12 01:33N 40°23' W 072°41'1616.2
2014-Oct-12 00:33N 40°22' W 073°02'1616.2
2014-Oct-11 23:33N 40°23' W 073°23'1616.2
2014-Oct-11 22:33N 40°25' W 073°44'1514.6
2014-Oct-11 21:33N 40°32' W 074°01'1413.9
2014-Oct-11 20:33N 40°46' W 074°00'1 0.5
2014-Oct-11 19:27N 40°46' W 073°60'0 0.0
2014-Oct-11 18:33N 40°46' W 073°60'0 0.0
2014-Oct-11 17:33N 40°46' W 073°60'0 0.0
2014-Oct-11 16:33N 40°46' W 073°60'0 0.0
2014-Oct-11 15:33N 40°46' W 073°60'0 0.0
2014-Oct-11 14:33N 40°46' W 073°60'0 0.0
2014-Oct-11 13:33N 40°46' W 073°60'0 0.0
2014-Oct-11 12:33N 40°46' W 073°60'0 0.0
2014-Oct-11 11:33N 40°46' W 073°60'2 1.5
2014-Oct-11 10:33N 40°45' W 074°01'9 8.7
2014-Oct-11 09:33N 40°36' W 074°03'1111.3
2014-Oct-11 08:33N 40°28' W 073°52'10 9.3
2014-Oct-11 07:29N 40°27' W 073°39'1716.7
2014-Oct-11 06:27N 40°29' W 073°16'1617.6
2014-Oct-11 05:33N 40°30' W 072°55'1818.0
2014-Oct-11 04:33N 40°30' W 072°32'1817.8
2014-Oct-11 03:34N 40°31' W 072°09'1817.7
2014-Oct-11 02:33N 40°31' W 071°45'1717.4
2014-Oct-11 01:33N 40°32' W 071°22'1717.5
2014-Oct-11 00:34N 40°32' W 070°59'1717.5
2014-Oct-10 23:33N 40°33' W 070°36'1817.7
2014-Oct-10 22:33N 40°34' W 070°13'1818.0
2014-Oct-10 21:33N 40°34' W 069°49'1817.8
2014-Oct-10 20:33N 40°34' W 069°26'1817.5
2014-Oct-10 19:33N 40°36' W 069°03'1717.1
2014-Oct-10 18:33N 40°41' W 068°41'2116.5
2014-Oct-10 17:18N 40°50' W 068°17'303 6.9
2014-Oct-08 21:34N 44°26' W 063°29'1212.1
2014-Oct-08 20:33N 44°38' W 063°33'0 0.3
2014-Oct-08 19:28N 44°38' W 063°34'0 0.0
2014-Oct-08 18:33N 44°38' W 063°34'0 0.0
2014-Oct-08 17:33N 44°38' W 063°34'0 0.0
2014-Oct-08 16:33N 44°38' W 063°34'0 0.0
2014-Oct-08 15:33N 44°38' W 063°34'0 0.0
2014-Oct-08 14:33N 44°38' W 063°34'0 0.0
2014-Oct-08 13:33N 44°38' W 063°34'0 0.0
2014-Oct-08 12:33N 44°38' W 063°34'0 0.3
2014-Oct-08 11:33N 44°38' W 063°33'10 9.5
2014-Oct-08 10:33N 44°29' W 063°29'9 8.7
2014-Oct-08 09:33N 44°21' W 063°23'10 9.3
2014-Oct-08 08:27N 44°14' W 063°33'28 9.0
2014-Oct-08 05:19N 43°56' W 064°04'17 9.3
2014-Oct-08 03:32N 43°46' W 064°22'  

Dump ship's entire track history